DELTA 1 DEB, 26701

Orbit data source: Space-Track

DELTA 1 DEB, 26701 is space debris in SSO originally from a launch on Thu, 12 Jun 1975 UTC launched from the Air Force Western Test Range (AFWTR). Debris objects in space refer to the collection of defunct objects orbiting the Earth. Examples of debris include non-operational satellites, rocket bodies, and fragments generated from explosions, collisions, or faulty payload assembly.

Loading next visibility...
Identifier
26701, 1975-052KB
Orbit
SSO
Country
Flag of USUS
Related business
Manufacturer
Unknown
Mission
Spacecraft
Bus & Motor
Unknown
Mass
Unknown
Launch date (UTC)
1975-06-12 (50 years ago)
Launch vehicle
Unknown
Launch site
Air Force Western Test Range (AFWTR)
Object type
Payload
Rocket body
Debris
Shape & HBR
Unknown shape, 0.1 m
Radar Cross Section
Small (<0.1 m²)

Expand to show TLE details & history
Last TLE update: 2 days ago

TLE from 2 days ago
0 DELTA 1 DEB
1 26701U 75052KB  25304.90002380  .00000703  00000-0  87370-3 0  9999
2 26701  99.7796 172.1098 0257891 118.3172   4.5425 13.55086237231217
Epoch: 2025-10-31T21:36Z
TLE epoch observation values (Epoch: 2025-10-31T21:36:02.056Z)
Latitude
55.74326°
Longitude
2.24422°
Altitude
871.721 km
Speed
7.517 km/s
True Right ascension
00h 26m 45s
True Declination
55° 35' 08"
Sunlit
Object was in full shadow at epoch
Visualization orbit readout
Latitude
Unknown
Longitude
Unknown
Altitude
Unknown
Speed
Unknown
Apparent Right ascension
Unknown
Apparent Declination
Unknown
Sunlit
N/A
Visualization observer readout
Local Sidereal Time
02:44:00
Azimuth
Unknown
Elevation
Unknown
Doppler factor
Unknown
Orbital elements
Apogee altitude
1,242.488 km
Perigee altitude
859.312 km
Semi-major axis
7,429.037 km
Eccentricity
0.02579
Inclination
99.7796°
RAAN
172.1098°
Arg. of periapsis
118.3172°
True anomaly
4.78431°
Mean anomaly
4.5425°
Eccentric anomaly
4.66261°
Mean motion
3.38957 °/min
Orbital period
106.21 mins
BSTAR
0.0008737
Loading maneuver chart data...
Computing Atmospheric mass density...
Loading historical data...
Loading historical data...
Loading historical data...
Loading historical data...
Loading historical data...
Loading historical data...
Loading historical data...

Documentation

Showing up to 5 results
|